Location: Marion Hill
(40.7303°N, 80.2959°W)
Time: 17:28:48
(UTC+00:00)

COSMO-SKYMED 1 - Pass Details

Date: 29 October 2020
Orbit: 621 x 623 km, 97.9° (Epoch: 28 November)

Event Time Altitude Azimuth Distance (km) Brightness Sun altitude
Rises 23:31:59 0° 11° (N) 2,911 5.8 -14.1°
Reaches altitude 10° 23:34:11 10° 10° (N) 2,000 5.0 -14.5°
Maximum altitude 23:38:32 81° 283° (WNW) 635 2.6 -15.3°
Drops below altitude 10° 23:42:51 10° 197° (SSW) 1,983 5.4 -16.1°
Sets 23:45:02 0° 197° (SSW) 2,885 6.3 -16.5°
